Time,TemperatureF,DewpointF,PressureIn,WindDirection,WindDirectionDegrees,WindSpeedMPH,WindSpeedGustMPH,Humidity,HourlyPrecipIn,Conditions,Clouds,dailyrainin,SoftwareType,DateUTC
2013-04-13 01:13:00,-0.4,-7.2,30.20,SSE,157,2.7,-999.0,72,-99.99,,,0.00,Acu-Link.com,2013-04-13 09:13:00,
2013-04-13 01:28:00,-0.4,-6.4,30.20,ESE,112,3.2,-999.0,75,-99.99,,,0.00,Acu-Link.com,2013-04-13 09:28:00,
2013-04-13 01:58:00,-3.8,-9.2,30.21,ESE,112,0.0,-999.0,77,-99.99,,,0.00,Acu-Link.com,2013-04-13 09:58:00,
2013-04-13 02:13:00,-5.4,-11.0,30.20,ESE,112,2.2,-999.0,76,-99.99,,,0.00,Acu-Link.com,2013-04-13 10:13:00,
2013-04-13 02:44:00,-6.3,-11.1,30.22,ESE,112,2.2,-999.0,79,-99.99,,,0.00,Acu-Link.com,2013-04-13 10:44:00,
2013-04-13 02:59:00,-6.7,-11.5,30.22,ESE,112,0.0,-999.0,79,-99.99,,,0.00,Acu-Link.com,2013-04-13 10:59:00,
2013-04-13 03:14:00,-8.3,-13.8,30.22,ESE,112,0.0,-999.0,76,-99.99,,,0.00,Acu-Link.com,2013-04-13 11:14:00,
2013-04-13 03:45:00,-9.4,-14.4,30.23,ESE,112,2.2,-999.0,78,-99.99,,,0.00,Acu-Link.com,2013-04-13 11:45:00,
2013-04-13 04:15:00,-11.6,-17.3,30.23,ESE,112,0.0,-999.0,75,-99.99,,,0.00,Acu-Link.com,2013-04-13 12:15:00,
2013-04-13 04:46:00,-13.2,-19.1,30.24,ESE,112,0.0,-999.0,74,-99.99,,,0.00,Acu-Link.com,2013-04-13 12:46:00,
2013-04-13 06:32:00,-14.4,-20.0,30.26,ESE,112,0.0,-999.0,75,-99.99,,,0.00,Acu-Link.com,2013-04-13 14:32:00,
2013-04-13 06:48:00,-13.5,-19.1,30.27,ESE,112,0.0,-999.0,75,-99.99,,,0.00,Acu-Link.com,2013-04-13 14:48:00,
2013-04-13 07:04:00,-10.5,-16.2,30.27,ESE,112,0.0,-999.0,75,-99.99,,,0.00,Acu-Link.com,2013-04-13 15:04:00,
2013-04-13 07:19:00,-9.4,-15.7,30.26,ESE,112,2.2,-999.0,73,-99.99,,,0.00,Acu-Link.com,2013-04-13 15:19:00,
2013-04-13 07:34:00,-7.1,-13.7,30.26,ESE,112,1.7,-999.0,72,-99.99,,,0.00,Acu-Link.com,2013-04-13 15:34:00,
2013-04-13 07:49:00,-4.9,-13.0,30.25,ESE,112,2.7,-999.0,67,-99.99,,,0.00,Acu-Link.com,2013-04-13 15:49:00,
2013-04-13 08:05:00,-2.2,-11.0,30.26,ESE,112,2.2,-999.0,65,-99.99,,,0.00,Acu-Link.com,2013-04-13 16:05:00,
2013-04-13 08:20:00,1.8,-6.3,30.25,ESE,112,0.0,-999.0,68,-99.99,,,0.00,Acu-Link.com,2013-04-13 16:20:00,
2013-04-13 08:35:00,8.1,-4.3,30.26,ESE,112,0.0,-999.0,56,-99.99,,,0.00,Acu-Link.com,2013-04-13 16:35:00,
2013-04-13 08:51:00,11.8,-3.2,30.27,ESE,112,1.1,-999.0,50,-99.99,,,0.00,Acu-Link.com,2013-04-13 16:51:00,
2013-04-13 09:21:00,6.8,-4.5,30.26,ESE,112,0.0,-999.0,59,-99.99,,,0.00,Acu-Link.com,2013-04-13 17:21:00,
2013-04-13 09:51:00,6.4,-4.5,30.24,ESE,112,1.1,-999.0,60,-99.99,,,0.00,Acu-Link.com,2013-04-13 17:51:00,
2013-04-13 10:22:00,12.9,-1.8,30.21,ESE,112,0.0,-999.0,51,-99.99,,,0.00,Acu-Link.com,2013-04-13 18:22:00,
2013-04-13 10:37:00,13.5,-0.8,30.19,South,180,0.0,-999.0,52,-99.99,,,0.00,Acu-Link.com,2013-04-13 18:37:00,
2013-04-13 10:53:00,15.6,-0.1,30.19,SE,135,0.0,-999.0,49,-99.99,,,0.00,Acu-Link.com,2013-04-13 18:53:00,
2013-04-13 11:08:00,15.1,-1.0,30.20,West,270,0.0,-999.0,48,-99.99,,,0.00,Acu-Link.com,2013-04-13 19:08:00,
2013-04-13 11:23:00,21.2,1.2,30.20,ENE,67,0.0,-999.0,41,-99.99,,,0.00,Acu-Link.com,2013-04-13 19:23:00,
2013-04-13 11:38:00,18.5,-0.2,30.20,SSW,202,1.7,-999.0,43,-99.99,,,0.00,Acu-Link.com,2013-04-13 19:38:00,
2013-04-13 11:54:00,18.1,-0.1,30.20,West,270,4.7,-999.0,44,-99.99,,,0.00,Acu-Link.com,2013-04-13 19:54:00,
2013-04-13 12:09:00,18.9,-0.4,30.21,WSW,247,5.3,-999.0,42,-99.99,,,0.00,Acu-Link.com,2013-04-13 20:09:00,
2013-04-13 12:25:00,18.7,-1.0,30.20,West,270,4.2,-999.0,41,-99.99,,,0.00,Acu-Link.com,2013-04-13 20:25:00,
2013-04-13 12:40:00,19.6,-0.8,30.21,WSW,247,3.2,-999.0,40,-99.99,,,0.00,Acu-Link.com,2013-04-13 20:40:00,
2013-04-13 12:56:00,21.4,-0.2,30.22,West,270,2.2,-999.0,38,-99.99,,,0.00,Acu-Link.com,2013-04-13 20:56:00,
2013-04-13 13:26:00,22.5,1.3,30.23,SW,225,4.7,-999.0,39,-99.99,,,0.00,Acu-Link.com,2013-04-13 21:26:00,
2013-04-13 13:41:00,21.6,0.0,30.23,West,270,2.7,-999.0,38,-99.99,,,0.00,Acu-Link.com,2013-04-13 21:41:00,
2013-04-13 13:57:00,23.9,1.5,30.23,SSE,157,2.2,-999.0,37,-99.99,,,0.00,Acu-Link.com,2013-04-13 21:57:00,
2013-04-13 14:12:00,24.1,1.6,30.23,South,180,3.7,-999.0,37,-99.99,,,0.00,Acu-Link.com,2013-04-13 22:12:00,
2013-04-13 14:27:00,25.0,2.4,30.23,SSW,202,3.7,-999.0,37,-99.99,,,0.00,Acu-Link.com,2013-04-13 22:27:00,
2013-04-13 14:43:00,24.1,1.1,30.23,WSW,247,3.7,-999.0,36,-99.99,,,0.00,Acu-Link.com,2013-04-13 22:43:00,
2013-04-13 14:58:00,24.3,1.2,30.23,WSW,247,5.3,-999.0,36,-99.99,,,0.00,Acu-Link.com,2013-04-13 22:58:00,
2013-04-13 15:14:00,24.8,1.1,30.23,WSW,247,3.7,-999.0,35,-99.99,,,0.00,Acu-Link.com,2013-04-13 23:14:00,
2013-04-13 15:29:00,25.7,1.9,30.23,SW,225,3.2,-999.0,35,-99.99,,,0.00,Acu-Link.com,2013-04-13 23:29:00,
2013-04-13 16:00:00,26.1,1.6,30.23,SW,225,2.7,-999.0,34,-99.99,,,0.00,Acu-Link.com,2013-04-14 00:00:00,
2013-04-13 16:16:00,25.7,0.6,30.23,West,270,5.3,-999.0,33,-99.99,,,0.00,Acu-Link.com,2013-04-14 00:16:00,
2013-04-13 16:31:00,26.6,2.1,30.23,WSW,247,8.3,-999.0,34,-99.99,,,0.00,Acu-Link.com,2013-04-14 00:31:00,
2013-04-13 17:02:00,26.8,-0.4,30.23,WSW,247,7.8,-999.0,30,-99.99,,,0.00,Acu-Link.com,2013-04-14 01:02:00,
2013-04-13 17:17:00,26.6,-2.1,30.25,SSW,202,7.8,-999.0,28,-99.99,,,0.00,Acu-Link.com,2013-04-14 01:17:00,
2013-04-13 17:32:00,26.6,-2.1,30.25,WSW,247,8.3,-999.0,28,-99.99,,,0.00,Acu-Link.com,2013-04-14 01:32:00,
2013-04-13 17:47:00,27.1,-2.4,30.26,West,270,6.3,-999.0,27,-99.99,,,0.00,Acu-Link.com,2013-04-14 01:47:00,
2013-04-13 18:03:00,26.2,-3.2,30.25,WSW,247,8.9,-999.0,27,-99.99,,,0.00,Acu-Link.com,2013-04-14 02:03:00,
2013-04-13 18:19:00,25.5,-3.0,30.25,West,270,5.3,-999.0,28,-99.99,,,0.00,Acu-Link.com,2013-04-14 02:19:00,
2013-04-13 18:34:00,26.1,-1.0,30.26,WSW,247,5.3,-999.0,30,-99.99,,,0.00,Acu-Link.com,2013-04-14 02:34:00,
2013-04-13 18:49:00,26.8,0.3,30.26,West,270,4.2,-999.0,31,-99.99,,,0.00,Acu-Link.com,2013-04-14 02:49:00,
2013-04-13 19:04:00,26.6,1.4,30.26,West,270,5.8,-999.0,33,-99.99,,,0.00,Acu-Link.com,2013-04-14 03:04:00,
2013-04-13 19:26:00,25.7,0.6,30.26,WSW,247,6.8,-999.0,33,-99.99,,,0.00,Acu-Link.com,2013-04-14 03:26:00,
2013-04-13 19:42:00,25.3,0.3,30.26,SW,225,6.3,-999.0,33,-99.99,,,0.00,Acu-Link.com,2013-04-14 03:42:00,
2013-04-13 19:57:00,26.1,1.0,30.26,SW,225,3.7,-999.0,33,-99.99,,,0.00,Acu-Link.com,2013-04-14 03:57:00,
2013-04-13 20:13:00,25.5,0.4,30.25,WSW,247,5.8,-999.0,33,-99.99,,,0.00,Acu-Link.com,2013-04-14 04:13:00,
2013-04-13 20:28:00,25.0,0.6,30.26,West,270,4.7,-999.0,34,-99.99,,,0.00,Acu-Link.com,2013-04-14 04:28:00,
2013-04-13 20:43:00,24.3,0.6,30.26,West,270,2.7,-999.0,35,-99.99,,,0.00,Acu-Link.com,2013-04-14 04:43:00,
2013-04-13 20:59:00,22.3,0.0,30.27,West,270,2.7,-999.0,37,-99.99,,,0.00,Acu-Link.com,2013-04-14 04:59:00,
2013-04-13 21:14:00,19.4,-0.4,30.27,West,270,0.0,-999.0,41,-99.99,,,0.00,Acu-Link.com,2013-04-14 05:14:00,
2013-04-13 21:29:00,18.1,-0.1,30.28,West,270,1.7,-999.0,44,-99.99,,,0.00,Acu-Link.com,2013-04-14 05:29:00,
2013-04-13 21:44:00,16.5,-1.1,30.28,ESE,112,2.7,-999.0,45,-99.99,,,0.00,Acu-Link.com,2013-04-14 05:44:00,
2013-04-13 22:00:00,14.4,-1.7,30.28,ESE,112,3.2,-999.0,48,-99.99,,,0.00,Acu-Link.com,2013-04-14 06:00:00,
2013-04-13 22:15:00,12.2,-2.0,30.29,ESE,112,2.2,-999.0,52,-99.99,,,0.00,Acu-Link.com,2013-04-14 06:15:00,
2013-04-13 22:30:00,10.4,-2.9,30.29,ESE,112,2.2,-999.0,54,-99.99,,,0.00,Acu-Link.com,2013-04-14 06:30:00,
2013-04-13 22:45:00,9.3,-2.8,30.30,ESE,112,2.2,-999.0,57,-99.99,,,0.00,Acu-Link.com,2013-04-14 06:45:00,
2013-04-13 23:01:00,8.8,-3.3,30.30,ESE,112,3.2,-999.0,57,-99.99,,,0.00,Acu-Link.com,2013-04-14 07:01:00,
2013-04-13 23:16:00,9.3,-3.2,30.31,ESE,112,2.7,-999.0,56,-99.99,,,0.00,Acu-Link.com,2013-04-14 07:16:00,
2013-04-13 23:46:00,9.7,-3.2,30.31,SE,135,3.2,-999.0,55,-99.99,,,0.00,Acu-Link.com,2013-04-14 07:46:00,